"Pseudo-MPEC" for P21OuZI

Created 2023 Nov 30 6:22:06 UT using Find_Orb

Click here for an explanation of pseudo-MPECs

 
 Astrometry: 
     P21OuZI* C2023 11 206'Y$-M/ywnmUDoBAstrometry`redacted;8a0(`61nv7click%?F52
     P21OuZI  C2023 11 20J!/R4here4_bC89k_n6/JXos%x3od'E!,daN2ubq]_0PforQIDAXF52
     P21OuZI  C2023 11 20HyMeL,=_'@G]Lfcg:ubVF;explanation0PFZOg8w@@FLZ+(;K*xF52
     P21OuZI KC2023 11 21.31248104 57 28.290-18 19 49.10   ~BL8M       VNEOCPI52
     P21OuZI KC2023 11 21.31712504 57 27.840-18 19 45.70   ~BL8M       VNEOCPI52
     P21OuZI KC2023 11 21.32176704 57 27.590-18 19 41.60   ~BL8M       VNEOCPI52

Station data:
(F52) Pan-STARRS 2, Haleakala  (N20.707382 W156.255910)  US/Hawaii.
   Observers J. Bulger, T. Dukes, T. Lowe, A. Schultz, M. Willman. Measurers
   K. Chambers, S. Chastel, T. de Boer, L. Denneau, J. Fairlamb, H.
   Flewelling, M. Huber, C.-C. Lin, E. Magnier, Y. Ramanjooloo, R. Wainscoat,
   R. Weryk. 1.8-m Ritchey-Chrétien + CCD.
(I52) Steward Observatory, Mt. Lemmon Station  (N32.442544 W110.788920)
   US/Arizona.  Observers T. A. Pruyne, B. M. Africano, E. J. Christensen, G.
   A. Farneth, D. C. Fuls, A. R. Gibbs, A. D. Grauer, H. Gröller, J. A.
   Johnson, R. A. Kowalski, S. M. Larson, G. J. Leonard, D. Rankin, R. L.
   Seaman, F. C. Shelly, K. W. Wierzchoś. 1.0-m prime focus + CCD.

Orbital elements:  P21OuZI
   Perihelion 2023 Jul 10.91961 +/- 102 TT = 22:04:14 (JD 2460136.41961)
Epoch 2023 Nov 21.0 TT = JDT 2460269.5   Earth MOID: 0.3968   Ma: 0.0341
M  30.96424810 +/- 31               (J2000 ecliptic)             AutoNEOCP
n   0.23267326 +/- 0.0681           Peri.  224.07750 +/- 56
a   2.61801258 +/- 0.511            Node   114.72533 +/- 7
e   0.4912131 +/- 0.11              Incl.   25.76087 +/- 6
P   4.24                   H 19.36  G  0.15   U 11.0  SR
q 1.33201038 +/- 0.269    Q 3.90401478 +/- 0.592
From 6 observations 2023 Nov. 20-21 (20.7 hr); mean residual 0".57
Residuals in arcseconds: 
231120 F52  .14-  .05-    231120 F52  .07+  .18+    231121 I52  .96-  .24-    
231120 F52  .07+  .12-    231121 I52  .43-  .50-    231121 I52  1.4+  .72+    

Ephemerides (geocentric):
Date (UTC) HH   RA             Dec           delta  r     elong  mag " sig PA
---- --------  ------------   ------------  ------ ------ -----  --- --------
2023 11 30 06  04 44 41.229   -16 19 09.91  1.0356 1.9104 141.7 21.8  508  45
2023 11 30 07  04 44 37.713   -16 18 31.07  1.0358 1.9106 141.8 21.8  513  45
2023 11 30 08  04 44 34.199   -16 17 52.19  1.0360 1.9109 141.8 21.8  518  45
2023 11 30 09  04 44 30.685   -16 17 13.26  1.0362 1.9111 141.8 21.8  522  45
2023 11 30 10  04 44 27.172   -16 16 34.29  1.0364 1.9114 141.8 21.8  527  45
2023 11 30 11  04 44 23.661   -16 15 55.27  1.0366 1.9116 141.8 21.8  532  45
2023 11 30 12  04 44 20.151   -16 15 16.21  1.0368 1.9119 141.8 21.8  537  45
2023 11 30 13  04 44 16.642   -16 14 37.10  1.0370 1.9121 141.8 21.8  541  45
2023 11 30 14  04 44 13.134   -16 13 57.96  1.0372 1.9124 141.8 21.8  546  45
2023 11 30 15  04 44 09.627   -16 13 18.76  1.0374 1.9126 141.9 21.8  551  45
2023 11 30 16  04 44 06.122   -16 12 39.53  1.0376 1.9129 141.9 21.8  556  45
2023 11 30 17  04 44 02.618   -16 12 00.25  1.0378 1.9131 141.9 21.8  561  45
2023 11 30 18  04 43 59.114   -16 11 20.93  1.0380 1.9134 141.9 21.8  566  45
2023 11 30 19  04 43 55.613   -16 10 41.56  1.0382 1.9136 141.9 21.8  570  45
2023 11 30 20  04 43 52.112   -16 10 02.15  1.0384 1.9139 141.9 21.8  575  45
2023 11 30 21  04 43 48.613   -16 09 22.70  1.0386 1.9141 141.9 21.8  580  44
2023 11 30 22  04 43 45.115   -16 08 43.20  1.0388 1.9144 141.9 21.8  585  44
2023 11 30 23  04 43 41.618   -16 08 03.66  1.0390 1.9146 141.9 21.8  590  44
2023 12 01 00  04 43 38.122   -16 07 24.08  1.0392 1.9149 142.0 21.8  595  44
2023 12 01 01  04 43 34.628   -16 06 44.45  1.0394 1.9151 142.0 21.8  600  44
2023 12 01 02  04 43 31.135   -16 06 04.78  1.0396 1.9154 142.0 21.8  605  44
2023 12 01 03  04 43 27.643   -16 05 25.07  1.0398 1.9156 142.0 21.8  611  44
2023 12 01 04  04 43 24.153   -16 04 45.31  1.0400 1.9159 142.0 21.8  616  44
2023 12 01 05  04 43 20.664   -16 04 05.51  1.0402 1.9161 142.0 21.8  621  44
2023 12 01 06  04 43 17.176   -16 03 25.67  1.0404 1.9164 142.0 21.8  626  44
2023 12 01 07  04 43 13.690   -16 02 45.79  1.0407 1.9166 142.0 21.8  631  44
2023 12 01 08  04 43 10.204   -16 02 05.86  1.0409 1.9169 142.0 21.8  636  44
2023 12 01 09  04 43 06.721   -16 01 25.89  1.0411 1.9171 142.1 21.8  642  44
2023 12 01 10  04 43 03.238   -16 00 45.88  1.0413 1.9174 142.1 21.8  647  44
2023 12 01 11  04 42 59.757   -16 00 05.82  1.0415 1.9176 142.1 21.8  652  44
2023 12 01 12  04 42 56.277   -15 59 25.73  1.0417 1.9179 142.1 21.8  657  44
2023 12 01 13  04 42 52.799   -15 58 45.58  1.0419 1.9181 142.1 21.8  663  44
2023 12 01 14  04 42 49.322   -15 58 05.40  1.0421 1.9184 142.1 21.8  668  44
2023 12 01 15  04 42 45.846   -15 57 25.18  1.0423 1.9186 142.1 21.8  673  44
2023 12 01 16  04 42 42.372   -15 56 44.91  1.0425 1.9189 142.1 21.8  679  44
2023 12 01 17  04 42 38.899   -15 56 04.60  1.0427 1.9191 142.1 21.8  684  44
2023 12 01 18  04 42 35.427   -15 55 24.25  1.0429 1.9194 142.1 21.8  689  44
2023 12 01 19  04 42 31.957   -15 54 43.85  1.0431 1.9196 142.2 21.8  695  44
2023 12 01 20  04 42 28.489   -15 54 03.42  1.0434 1.9199 142.2 21.8  700  44
2023 12 01 21  04 42 25.021   -15 53 22.94  1.0436 1.9201 142.2 21.8  706  44
2023 12 01 22  04 42 21.556   -15 52 42.42  1.0438 1.9204 142.2 21.8  711  44
2023 12 01 23  04 42 18.091   -15 52 01.86  1.0440 1.9206 142.2 21.8  717  44
2023 12 02 00  04 42 14.628   -15 51 21.25  1.0442 1.9209 142.2 21.8  722  44
2023 12 02 01  04 42 11.167   -15 50 40.61  1.0444 1.9211 142.2 21.8  728  44
2023 12 02 02  04 42 07.707   -15 49 59.92  1.0446 1.9214 142.2 21.8  734  44
2023 12 02 03  04 42 04.248   -15 49 19.19  1.0448 1.9216 142.2 21.8  739  44
2023 12 02 04  04 42 00.791   -15 48 38.42  1.0450 1.9218 142.2 21.8  745  44
2023 12 02 05  04 41 57.336   -15 47 57.61  1.0453 1.9221 142.2 21.8  750  44